Location: El Álamo
(40.2307°N, 3.9945°W)
Time: 04:31:33
(UTC+00:00)

ISS - Pass Details

Date: 19 May 2025
Orbit: 415 x 417 km, 51.6° (Epoch: 24 June)

Event Time Altitude Azimuth Distance (km) Brightness Sun altitude
Rises 21:45:25 0° 313° (NW) 2,361 1.5 -20.7°
Reaches altitude 10° 21:47:57 10° 332° (NNW) 1,494 0.2 -21.0°
Maximum altitude 21:50:26 19° 20° (NNE) 1,060 -1.4 -21.3°
Enters shadow 21:51:34 16° 46° (NE) 1,162 -1.5 -21.4°
